TimeCDT,TemperatureF,Dew PointF,Humidity,Sea Level PressureIn,VisibilityMPH,Wind Direction,Wind SpeedMPH,Gust SpeedMPH,PrecipitationIn,Events,Conditions,WindDirDegrees,DateUTC
12:56 AM,45.0,30.9,58,30.08,10.0,North,6.9,-,N/A,,Clear,360,2014-03-13 05:56:00
1:56 AM,43.0,28.0,56,30.09,10.0,North,10.4,17.3,N/A,,Clear,360,2014-03-13 06:56:00
2:56 AM,42.1,27.0,55,30.11,10.0,North,5.8,-,N/A,,Clear,360,2014-03-13 07:56:00
3:56 AM,39.0,28.0,65,30.11,10.0,Variable,3.5,-,N/A,,Clear,0,2014-03-13 08:56:00
4:56 AM,37.0,28.0,70,30.14,10.0,Calm,Calm,-,N/A,,Clear,0,2014-03-13 09:56:00
5:56 AM,36.0,28.9,76,30.15,10.0,Calm,Calm,-,N/A,,Clear,0,2014-03-13 10:56:00
6:56 AM,34.0,28.0,79,30.19,10.0,Calm,Calm,-,N/A,,Clear,0,2014-03-13 11:56:00
7:56 AM,37.4,30.2,75,30.22,10.0,WNW,3.5,-,N/A,,Partly Cloudy,300,2014-03-13 12:56:00
8:56 AM,44.1,28.9,55,30.24,10.0,NNW,6.9,-,N/A,,Clear,340,2014-03-13 13:56:00
9:56 AM,50.0,26.1,39,30.24,10.0,North,9.2,18.4,N/A,,Clear,360,2014-03-13 14:56:00
10:56 AM,53.1,26.1,35,30.25,10.0,North,16.1,24.2,N/A,,Clear,350,2014-03-13 15:56:00
11:56 AM,57.0,28.0,33,30.23,5.0,North,17.3,23.0,N/A,,Smoke,350,2014-03-13 16:56:00
12:56 PM,57.9,27.0,31,30.20,7.0,North,17.3,26.5,N/A,,Partly Cloudy,350,2014-03-13 17:56:00
1:56 PM,61.0,28.0,29,30.18,9.0,North,13.8,23.0,N/A,,Partly Cloudy,10,2014-03-13 18:56:00
2:56 PM,62.1,28.0,28,30.16,10.0,North,13.8,-,N/A,,Partly Cloudy,10,2014-03-13 19:56:00
3:56 PM,64.0,28.0,26,30.15,10.0,NNW,12.7,18.4,N/A,,Partly Cloudy,340,2014-03-13 20:56:00
4:56 PM,63.0,28.9,28,30.15,10.0,NNW,13.8,-,N/A,,Partly Cloudy,340,2014-03-13 21:56:00
5:56 PM,62.1,30.0,30,30.16,10.0,North,9.2,-,N/A,,Partly Cloudy,350,2014-03-13 22:56:00
6:56 PM,57.0,34.0,42,30.18,10.0,NNW,3.5,-,N/A,,Partly Cloudy,330,2014-03-13 23:56:00
7:56 PM,46.9,36.0,66,30.20,10.0,North,3.5,-,N/A,,Partly Cloudy,350,2014-03-14 00:56:00
8:56 PM,46.9,37.0,68,30.22,10.0,Calm,Calm,-,N/A,,Clear,0,2014-03-14 01:56:00
9:56 PM,45.0,35.1,68,30.22,10.0,Calm,Calm,-,N/A,,Clear,0,2014-03-14 02:56:00
10:56 PM,39.9,34.0,79,30.22,10.0,NNE,3.5,-,N/A,,Clear,30,2014-03-14 03:56:00
11:56 PM,37.0,34.0,89,30.21,10.0,Calm,Calm,-,N/A,,Clear,0,2014-03-14 04:56:00